Regional Weather Roundup
Issued by NWS

Home | Current Version | Previous Version | Text Only | Print | Product List | Glossary Off
Versions: 1 2 3 4 5 6 7 8 9 10 11 12 13 14 15 16 17 18 19 20 21 22 23 24 25 26 27 28 29 30 31 32 33 34 35 36 37 38 39 40 41 42 43 44 45 46 47 48 49 50

000
ASUS43 KMKX 291111
RWRWI

WISCONSIN REGIONAL WEATHER ROUNDUP
NATIONAL WEATHER SERVICE MILWAUKEE/SULLIVAN WI
600 AM CDT SAT APR 29 2017

NOTE: "FAIR" INDICATES FEW OR NO CLOUDS BELOW 12,000 FEET WITH NO
SIGNIFICANT WEATHER AND/OR OBSTRUCTIONS TO VISIBILITY.

WIZ001-002-006>008-014>016-023>028-291200-
NORTHWEST WISCONSIN

CITY           SKY/WX    TMP DP  RH WIND       PRES   REMARKS
SUPERIOR ARPT  CLEAR     23  22  97 CALM      30.23R
ASHLAND        CLEAR     28  23  81 N3        30.24R
HAYWARD        CLEAR     25  22  88 CALM      30.21R
SIREN          PTCLDY    26  24  91 CALM      30.24R
CUMBERLAND     CLOUDY    32  27  80 CALM      30.23R
RICE LAKE      CLOUDY    30  28  93 CALM      30.24R
CHETEK         CLOUDY    31  27  84 E3        30.21
LADYSMITH      MOCLDY    30  27  88 CALM      30.23R
EAU CLAIRE     PTCLDY    32  26  78 E5        30.25R WCI  27
MENOMONIE      CLOUDY    34  27  76 E3        30.24R
NEW RICHMOND   CLOUDY    33  27  79 CALM      30.24R
OSCEOLA        MOCLDY    34  27  77 CALM      30.28R
$$

WIZ003>005-009-010-017-018-291200-
NORTH CENTRAL WISCONSIN

CITY           SKY/WX    TMP DP  RH WIND       PRES   REMARKS
MANITOWISH WTR CLEAR     26  25  94 CALM      30.18R
ARBOR VITAE    CLOUDY    28  26  89 CALM      30.19R
WOODRUFF       CLOUDY    28  26  89 CALM      30.19R
RHINELANDER    CLOUDY    30  25  81 CALM      30.21R
EAGLE RIVER    CLEAR     26  23  89 CALM      30.20R
LAND O LAKES   CLEAR     29  23  78 N6        30.18F WCI  23
PHILLIPS       PTCLDY    27  25  93 CALM      30.21R
TOMAHAWK       CLOUDY    27  25  91 CALM      30.23R
MEDFORD        CLOUDY    30  25  82 SE7       30.22R WCI  23
MERRILL        MOCLDY    30  27  90 S3        30.25R
$$

WIZ029-030-035-036-043>047-291200-
CENTRAL WISCONSIN

CITY           SKY/WX    TMP DP  RH WIND       PRES   REMARKS
WAUSAU         PTCLDY    30  26  85 NE3       30.21R
MOSINEE        PTCLDY    28  27  93 NE3       30.24R
MARSHFIELD     CLOUDY    31  25  78 NE6       30.21R WCI  25
STEVENS POINT  CLEAR     28  25  88 CALM      30.24F
WAUPACA        CLEAR     36  28  72 N3        30.25S
WAUTOMA        PTCLDY    35  26  69 NE8       30.23F WCI  29
WISC RAPIDS    CLEAR     33  26  75 NE6       30.23F WCI  28
CAMP DOUGLAS   CLOUDY    36  27  69 NE8       30.21S WCI  30
$$

WIZ011>013-019>022-031-037>040-048>050-291200-
NORTHEAST WISCONSIN

CITY           SKY/WX    TMP DP  RH WIND       PRES   REMARKS
ANTIGO         PTCLDY    30  25  83 E5        30.25R WCI  25
SHAWANO        CLEAR     35  29  77 N6        30.25F WCI  30
OCONTO         NOT AVBL
STURGEON BAY   CLEAR     34  26  72 N8        30.25R WCI  27
GREEN BAY      CLEAR     35  29  78 N9        30.24R WCI  28
MANITOWOC      CLEAR     35  26  69 N8        30.22R WCI  29
APPLETON       PTCLDY    34  25  69 N8        30.21R WCI  27
CLINTONVILLE   CLEAR     34  27  75 N3        30.24F
OSHKOSH        CLOUDY    37  27  67 NE15      30.21R WCI  28
$$

WIZ032>034-041-042-053>061-291200-
SOUTHWEST WISCONSIN

CITY           SKY/WX    TMP DP  RH WIND       PRES   REMARKS
LA CROSSE      CLEAR     38  29  70 NE6       30.24R WCI  33
SPARTA         CLEAR     35  29  79 NE7       30.22S WCI  30
VIROQUA        CLEAR     36  32  86 NE10      30.16F WCI  28
BOSCOBEL       CLOUDY    42  33  70 VRB5      30.15S
PRAIRIE DU CHI CLOUDY    42  31  64 NE3       30.16R
PLATTEVILLE    PTCLDY    42  37  80 NE13      30.14S
$$

WIZ056-057-062-063-064-067-068-291200-
SOUTH CENTRAL WISCONSIN

CITY           SKY/WX    TMP DP  RH WIND       PRES   REMARKS
REEDSBURG      PTCLDY    38  31  74 NE9       30.17S WCI  32
BARABOO/DELLS  PTCLDY    38  31  74 NE10      30.17S WCI  31
LONE ROCK      CLOUDY    41  32  70 E8        30.17R
MINERAL POINT  CLOUDY    43  34  70 NE14      30.13R
MADISON        MOCLDY    41  32  70 NE10      30.17R
MIDDLETON      PTCLDY    42  33  71 NE7       30.18R
WATERTOWN      PTCLDY    40  34  77 NE6       30.17R
MONROE         CLOUDY    41  34  75 NE15G22   30.14R
JANESVILLE     CLOUDY    45  34  65 NE8       30.16R
$$

WIZ051-052-058>065-066-070>072-291200-
SOUTHEAST WISCONSIN

CITY           SKY/WX    TMP DP  RH WIND       PRES   REMARKS
MILWAUKEE      CLOUDY    43  33  68 NE17G25   30.18R
WAUKESHA       MOCLDY    39  30  70 N8G16     30.18R WCI  34
MILWAUKEE/TIMM CLOUDY    41  30  65 NE13G18   30.20R
RACINE         CLOUDY    43  31  62 NE14      30.19R
KENOSHA        CLOUDY    43  31  62 NE14G21   30.16R
FOND DU LAC    CLOUDY    39  28  64 NE21      30.21R WCI  29
SHEBOYGAN      CLOUDY    37  31  78 N12G20    30.20R WCI  29
WEST BEND      PTCLDY    39  32  75 NE12G21   30.18R WCI  32
JUNEAU         CLOUDY    40  32  73 N9        30.19R WCI  33
$$

LSZ147-162-291200-
LAKE SUPERIOR

STATION/POSITION TIME  TEMP    WIND        PRES    WAVE
                       AIR SEA DIR/SP/G            HT/PER
                 (UTC) (F)     (DEG/KT/KT) (MB)    (FT/S)
DEVILS ISLAND    1100   36      10/  6/  7 1024.5S
PORT WING        0830   29     170/  4/  4 1024.0
SAXON HARBOR     1040   27     190/  3/  4 1023.0S
$$

LMZ867-665-643>646-291200-
LAKE MICHIGAN

STATION/POSITION TIME  TEMP    WIND        PRES    WAVE
                       AIR SEA DIR/SP/G            HT/PER
                 (UTC) (F)     (DEG/KT/KT) (MB)    (FT/S)
CHAMBERS ISLAND  1030   36     340/  6/  8 1024.0R
N MID LAKE BUOY  1050   36 37  360/  6/  8 1025.9R   2/ 4
NORTHPORT PIER   1030   36      CALM  / 10 1025.4R
KEWAUNEE LAKESHO 1048   36     350/  7/ 11 1023.5R
SHEBOYGAN LAKESH 1100   39      20/ 23/ 26 1023.2R
PORT WASHINGTON  1040   41      20/ 10/ 18 1022.7R
MILWAUKEE LAKESH 1050   42      20/ 16/ 19   N/A
S MID LAKE BUOY  0950   42 41   20/ 16/ 19 1019.7R   2/ 4
KENOSHA   LAKESH 1100   43      20/ 22/ 26 1021.3
$$

TC  - TEMPERATURE IN CELSIUS
VSB - VISIBILITY IN STATUTE MILES
WCI - WIND CHILL INDEX
HX  - HEAT INDEX





USA.gov is the U.S. government's official web portal to all federal, state and local government web resources and services.